| time (UTC) | temp C | wind direction | speed KPH | gust KPH | rain 1hr cm | rain 24hr cm | rain mn cm | humidity % | barometer mb |
| 20260505230906 | 8 | 64 | 4.8 | 12.9 | 0.00 | 0.03 | 0.00 | 74 | 1014.2 |
| 20260505224651 | 8 | 67 | 6.4 | 14.5 | 0.00 | 0.03 | 0.03 | 73 | 1014.1 |
| 20260505223151 | 8 | 71 | 4.8 | 12.9 | 0.00 | 0.03 | 0.03 | 73 | 1014.2 |
| 20260505221649 | 8 | 86 | 3.2 | 14.5 | 0.00 | 0.03 | 0.03 | 73 | 1014.3 |
| 20260505220148 | 8 | 60 | 4.8 | 14.5 | 0.00 | 0.03 | 0.03 | 73 | 1014.2 |
| 20260505215338 | 9 | 84 | 3.2 | 12.9 | 0.00 | 0.03 | 0.03 | 77 | 1014.1 |
| 20260505213148 | 10 | 58 | 3.2 | 11.3 | 0.00 | 0.03 | 0.03 | 77 | 1014.1 |
| 20260505211645 | 10 | 60 | 1.6 | 6.4 | 0.00 | 0.03 | 0.03 | 78 | 1014.0 |
| 20260505210146 | 10 | 76 | 3.2 | 8.0 | 0.00 | 0.03 | 0.03 | 78 | 1013.9 |
| 20260505204646 | 10 | 63 | 1.6 | 3.2 | 0.00 | 0.03 | 0.03 | 79 | 1013.8 |
| 20260505203144 | 10 | 44 | 0.0 | 4.8 | 0.00 | 0.03 | 0.03 | 78 | 1013.8 |
| 20260505201638 | 10 | 354 | 1.6 | 4.8 | 0.00 | 0.03 | 0.03 | 77 | 1013.8 |
| 20260505200137 | 10 | 336 | 1.6 | 6.4 | 0.00 | 0.03 | 0.03 | 76 | 1013.8 |
| 20260505194638 | 10 | 314 | 3.2 | 8.0 | 0.00 | 0.03 | 0.03 | 75 | 1013.7 |
| 20260505193826 | 10 | 41 | 3.2 | 8.0 | 0.00 | 0.03 | 0.03 | 73 | 1013.6 |
| 20260505191633 | 10 | 43 | 4.8 | 12.9 | 0.00 | 0.03 | 0.03 | 73 | 1013.5 |
| 20260505190132 | 11 | 12 | 4.8 | 14.5 | 0.00 | 0.03 | 0.03 | 71 | 1013.4 |
| 20260505184625 | 11 | 333 | 6.4 | 17.7 | 0.00 | 0.03 | 0.03 | 71 | 1013.5 |
| 20260505183124 | 11 | 343 | 6.4 | 14.5 | 0.00 | 0.03 | 0.03 | 70 | 1013.4 |
| 20260505181625 | 11 | 311 | 4.8 | 16.1 | 0.00 | 0.03 | 0.03 | 70 | 1013.4 |
| 20260505180829 | 12 | 56 | 6.4 | 16.1 | 0.00 | 0.03 | 0.03 | 68 | 1013.4 |
| 20260505175334 | 11 | 326 | 4.8 | 16.1 | 0.00 | 0.03 | 0.03 | 70 | 1013.5 |
| 20260505173123 | 11 | 327 | 8.0 | 17.7 | 0.00 | 0.03 | 0.03 | 69 | 1013.5 |
| 20260505172315 | 12 | 339 | 6.4 | 17.7 | 0.00 | 0.03 | 0.03 | 71 | 1013.5 |
| 20260505170814 | 11 | 352 | 8.0 | 17.7 | 0.00 | 0.03 | 0.03 | 71 | 1013.5 |
| 20260505164622 | 11 | 13 | 8.0 | 17.7 | 0.00 | 0.03 | 0.03 | 73 | 1013.6 |
| 20260505163120 | 11 | 285 | 8.0 | 19.3 | 0.00 | 0.03 | 0.03 | 75 | 1013.6 |
| 20260505163016 | 11 | 288 | 9.7 | 20.9 | 0.00 | 0.03 | 0.03 | 79 | 1013.5 |
| 20260505160122 | 11 | 296 | 9.7 | 17.7 | 0.00 | 0.03 | 0.03 | 77 | 1013.6 |
| 20260505151621 | 11 | 13 | 9.7 | 19.3 | 0.00 | 0.03 | 0.03 | 74 | 1013.5 |
| 20260505150122 | 11 | 326 | 9.7 | 19.3 | 0.00 | 0.03 | 0.03 | 75 | 1013.6 |
| 20260505140121 | 11 | 337 | 8.0 | 19.3 | 0.00 | 0.03 | 0.03 | 74 | 1013.7 |
| 20260505130114 | 11 | 300 | 11.3 | 20.9 | 0.00 | 0.03 | 0.03 | 72 | 1013.8 |
| 20260505124611 | 11 | 355 | 9.7 | 22.5 | 0.00 | 0.03 | 0.03 | 73 | 1013.9 |
| 20260505123114 | 11 | 291 | 11.3 | 22.5 | 0.00 | 0.03 | 0.03 | 77 | 1013.8 |
| 20260505121612 | 11 | 302 | 9.7 | 25.7 | 0.00 | 0.03 | 0.03 | 78 | 1013.9 |
| 20260505120803 | 11 | 273 | 11.3 | 20.9 | 0.00 | 0.03 | 0.03 | 78 | 1014.0 |
| 20260505114610 | 11 | 309 | 9.7 | 20.9 | 0.03 | 0.03 | 0.03 | 77 | 1014.1 |
| 20260505113801 | 11 | 342 | 8.0 | 19.3 | 0.03 | 0.03 | 0.03 | 76 | 1014.1 |
| 20260505111609 | 11 | 49 | 6.4 | 19.3 | 0.03 | 0.03 | 0.03 | 75 | 1014.1 |
| 20260505110809 | 11 | 269 | 6.4 | 20.9 | 0.03 | 0.03 | 0.03 | 75 | 1014.1 |
| 20260505101611 | 10 | 328 | 6.4 | 16.1 | 0.00 | 0.00 | 0.00 | 86 | 1014.3 |
| 20260505100110 | 10 | 72 | 8.0 | 20.9 | 0.00 | 0.00 | 0.00 | 86 | 1014.3 |
| 20260505095316 | 11 | 349 | 9.7 | 20.9 | 0.00 | 0.00 | 0.00 | 80 | 1014.1 |
| 20260505093803 | 11 | 347 | 9.7 | 20.9 | 0.00 | 0.00 | 0.00 | 81 | 1014.1 |
| 20260505091609 | 10 | 313 | 8.0 | 17.7 | 0.00 | 0.00 | 0.00 | 83 | 1014.1 |
| 20260505090111 | 10 | 305 | 8.0 | 17.7 | 0.00 | 0.00 | 0.00 | 83 | 1014.1 |
| 20260505084613 | 10 | 302 | 6.4 | 14.5 | 0.00 | 0.00 | 0.00 | 84 | 1014.2 |
| 20260505083813 | 10 | 4 | 6.4 | 14.5 | 0.00 | 0.00 | 0.00 | 84 | 1014.1 |
| 20260505083702 | 10 | 20 | 6.4 | 14.5 | 0.00 | 0.00 | 0.00 | 84 | 1014.2 |
| 20260505080108 | 10 | 314 | 4.8 | 14.5 | 0.00 | 0.00 | 0.00 | 84 | 1014.1 |
| 20260505074607 | 10 | 352 | 4.8 | 12.9 | 0.00 | 0.00 | 0.00 | 85 | 1014.1 |
| 20260505073759 | 10 | 302 | 4.8 | 11.3 | 0.00 | 0.00 | 0.00 | 86 | 1014.1 |
| 20260505071608 | 10 | 44 | 4.8 | 12.9 | 0.00 | 0.00 | 0.00 | 87 | 1014.1 |
| 20260505070108 | 10 | 321 | 4.8 | 12.9 | 0.00 | 0.00 | 0.00 | 87 | 1014.0 |
| 20260505064606 | 10 | 357 | 4.8 | 14.5 | 0.00 | 0.00 | 0.00 | 86 | 1014.2 |
| 20260505063105 | 10 | 347 | 4.8 | 11.3 | 0.00 | 0.00 | 0.00 | 86 | 1014.2 |
| 20260505061607 | 10 | 352 | 4.8 | 11.3 | 0.00 | 0.00 | 0.00 | 86 | 1014.2 |
| 20260505060105 | 9 | 356 | 3.2 | 11.3 | 0.00 | 0.00 | 0.00 | 86 | 1014.2 |
| 20260505054605 | 9 | 333 | 4.8 | 11.3 | 0.00 | 0.00 | 0.00 | 86 | 1014.0 |
| 20260505053800 | 9 | 356 | 4.8 | 9.7 | 0.00 | 0.00 | 0.00 | 86 | 1014.0 |
| 20260505051605 | 9 | 54 | 3.2 | 11.3 | 0.00 | 0.00 | 0.00 | 86 | 1013.9 |
| 20260505050754 | 8 | 352 | 3.2 | 11.3 | 0.00 | 0.00 | 0.00 | 86 | 1013.8 |
| 20260505041605 | 8 | 322 | 4.8 | 9.7 | 0.00 | 0.00 | 0.00 | 86 | 1013.8 |
| 20260505040105 | 8 | 22 | 1.6 | 8.0 | 0.00 | 0.00 | 0.00 | 85 | 1013.7 |
| 20260505034605 | 8 | 64 | 3.2 | 11.3 | 0.00 | 0.00 | 0.00 | 84 | 1013.7 |
| 20260505033811 | 8 | 345 | 4.8 | 12.9 | 0.00 | 0.00 | 0.00 | 83 | 1013.8 |
| 20260505031606 | 8 | 338 | 4.8 | 16.1 | 0.00 | 0.00 | 0.00 | 83 | 1013.8 |
| 20260505030106 | 8 | 326 | 4.8 | 11.3 | 0.00 | 0.00 | 0.00 | 86 | 1013.9 |
| 20260505024607 | 8 | 12 | 4.8 | 12.9 | 0.00 | 0.00 | 0.00 | 86 | 1013.9 |
| 20260505023106 | 9 | 312 | 4.8 | 14.5 | 0.00 | 0.00 | 0.00 | 86 | 1014.0 |
| 20260505021606 | 9 | 319 | 4.8 | 11.3 | 0.00 | 0.00 | 0.00 | 86 | 1013.9 |
| 20260505014602 | 9 | 16 | 4.8 | 11.3 | 0.00 | 0.00 | 0.00 | 89 | 1014.2 |
| 20260505013103 | 9 | 316 | 4.8 | 11.3 | 0.00 | 0.00 | 0.00 | 89 | 1014.2 |
| 20260505011601 | 9 | 23 | 4.8 | 11.3 | 0.00 | 0.00 | 0.00 | 90 | 1014.4 |
| 20260505010100 | 10 | 333 | 3.2 | 12.9 | 0.00 | 0.00 | 0.00 | 91 | 1014.2 |
| 20260505005256 | 10 | 318 | 4.8 | 12.9 | 0.00 | 0.00 | 0.00 | 90 | 1014.4 |
| 20260505003054 | 10 | 305 | 4.8 | 12.9 | 0.00 | 0.00 | 0.00 | 89 | 1014.5 |
| 20260505001555 | 10 | 3 | 4.8 | 11.3 | 0.00 | 0.00 | 0.00 | 88 | 1014.7 |
| 20260505000056 | 10 | 306 | 3.2 | 11.3 | 0.00 | 0.00 | 0.00 | 88 | 1014.6 |
| 20260504234554 | 10 | 330 | 4.8 | 11.3 | 0.00 | 0.00 | 0.00 | 88 | 1014.7 |
| 20260504233054 | 10 | 332 | 3.2 | 9.7 | 0.00 | 0.00 | 0.00 | 87 | 1014.8 |
| 20260504231554 | 10 | 290 | 4.8 | 12.9 | 0.00 | 0.00 | 0.00 | 87 | 1014.7 |